Location: Antioch Baptist Church
(32.6696°N, 85.7327°W)
Time: 12:29:13
(UTC+00:00)

Cosmos 1378 Rocket - Pass Details

Date: 14 July 2020
Orbit: 602 x 626 km, 82.5° (Epoch: 08 August)

Event Time Altitude Azimuth Distance (km) Brightness Sun altitude
Rises 08:48:24 0° 351° (N) 2,898 7.5 -20.9°
Reaches altitude 10° 08:50:37 10° 349° (N) 1,992 6.6 -20.5°
Maximum altitude 08:55:01 74° 266° (W) 652 3.4 -19.9°
Enters shadow 08:56:31 41° 191° (S) 911 4.0 -19.7°
